GW1572 Weather Reports


time (UTC)temp
C
wind
direction
speed
KPH
gust
KPH
rain 1hr
cm
rain 24hr
cm
rain mn
cm
humidity
%
barometer
mb
20260507174520 16 196 3.2 4.8 0.00 0.00 0.00 52 1005.0
20260507173945 17 237 4.8 6.4 0.00 0.00 0.00 52 1005.0
20260507172732 16 278 4.8 6.4 0.00 0.00 0.00 56 1005.0
20260507172129 16 278 3.2 3.2 0.00 0.00 0.00 53 1005.0
20260507170911 15 222 4.8 6.4 0.00 0.00 0.00 62 1005.0
20260507170321 16 233 8.0 14.5 0.00 0.00 0.00 55 1005.0
20260507165750 17 248 3.2 4.8 0.00 0.00 0.00 53 1005.0
20260507165135 16 315 8.0 9.7 0.00 0.00 0.00 55 1005.4
20260507163923 16 349 4.8 4.8 0.00 0.00 0.00 56 1005.4
20260507162722 15 278 3.2 4.8 0.00 0.00 0.00 55 1005.7
20260507162152 16 271 6.4 9.7 0.00 0.00 0.00 54 1005.4
20260507161555 15 251 6.4 9.7 0.00 0.00 0.00 58 1005.7
20260507160923 16 221 6.4 9.7 0.00 0.00 0.00 59 1005.7
20260507160346 15 248 3.2 4.8 0.00 0.00 0.00 64 1005.7
20260507155731 15 316 4.8 9.7 0.00 0.00 0.00 59 1005.7
20260507155123 15 273 1.6 1.6 0.00 0.00 0.00 57 1005.7
20260507154519 15 247 1.6 3.2 0.00 0.00 0.00 57 1005.7
20260507153911 15 250 0.0 0.0 0.00 0.00 0.00 57 1005.7
20260507153315 15 217 1.6 3.2 0.00 0.00 0.00 57 1006.0
20260507152750 14 260 3.2 3.2 0.00 0.00 0.00 63 1005.7
20260507151534 15 238 0.0 1.6 0.00 0.00 0.00 61 1006.0
20260507150347 15 252 4.8 4.8 0.00 0.00 0.00 58 1006.0
20260507145715 14 220 3.2 3.2 0.00 0.00 0.00 61 1006.0
20260507145111 14 236 1.6 1.6 0.00 0.00 0.00 58 1006.0
20260507144515 14 262 4.8 4.8 0.00 0.00 0.00 64 1005.7
20260507143939 14 259 4.8 6.4 0.00 0.00 0.00 59 1005.7
20260507143320 13 207 3.2 4.8 0.00 0.00 0.00 60 1006.0
20260507142123 13 205 1.6 1.6 0.00 0.00 0.00 66 1006.0
20260507141517 13 284 6.4 6.4 0.00 0.00 0.00 66 1006.0
20260507140926 13 274 3.2 4.8 0.00 0.00 0.00 67 1006.0
20260507140342 13 210 1.6 3.2 0.00 0.00 0.00 66 1006.4
20260507135143 12 193 4.8 6.4 0.00 0.00 0.00 65 1006.4
20260507134519 12 282 1.6 1.6 0.00 0.00 0.00 66 1006.7
20260507133319 12 224 3.2 3.2 0.00 0.00 0.00 73 1006.4
20260507132743 11 223 1.6 1.6 0.00 0.00 0.00 73 1006.7
20260507132122 11 201 1.6 3.2 0.00 0.00 0.00 74 1006.7
20260507130911 10 240 0.0 1.6 0.00 0.00 0.00 84 1006.7
20260507130311 10 234 1.6 1.6 0.00 0.00 0.00 88 1006.7
20260507124550 9 274 0.0 0.0 0.00 0.00 0.00 98 1006.7
20260507123943 9 290 0.0 0.0 0.00 0.00 0.00 99 1006.7
20260507123343 9 289 0.0 0.0 0.00 0.00 0.00 99 1006.7
20260507122748 9 289 0.0 0.0 0.00 0.00 0.00 99 1006.7
20260507122127 8 273 0.0 0.0 0.00 0.00 0.00 99 1006.7
20260507120340 8 286 0.0 0.0 0.00 0.00 0.00 99 1007.1
20260507115712 8 286 0.0 0.0 0.00 0.00 0.00 99 1006.7
20260507115146 8 284 0.0 0.0 0.00 0.00 0.00 99 1006.7
20260507114527 8 287 0.0 0.0 0.00 0.00 0.00 99 1006.7
20260507113916 8 293 0.0 0.0 0.00 0.00 0.00 99 1006.7
20260507113326 8 294 0.0 0.0 0.00 0.00 0.00 99 1006.7
20260507112752 8 291 0.0 0.0 0.00 0.00 0.00 99 1006.7
20260507111513 7 333 0.0 0.0 0.00 0.00 0.00 99 1006.4
20260507110940 7 319 0.0 0.0 0.00 0.00 0.00 99 1006.4
20260507110320 7 282 0.0 0.0 0.00 0.00 0.00 99 1006.4
20260507105717 7 284 0.0 0.0 0.00 0.00 0.00 99 1006.0
20260507105143 7 286 0.0 0.0 0.00 0.00 0.00 99 1006.0
20260507104546 7 290 0.0 0.0 0.00 0.00 0.00 99 1006.0
20260507103320 7 268 0.0 0.0 0.00 0.00 0.00 99 1006.0
20260507102729 7 281 0.0 0.0 0.00 0.00 0.00 99 1005.7
20260507101525 7 277 0.0 0.0 0.00 0.00 0.00 99 1005.7
20260507100912 7 313 0.0 0.0 0.00 0.00 0.00 99 1006.0
20260507100332 7 285 0.0 0.0 0.00 0.00 0.00 99 1006.0
20260507095740 7 276 0.0 0.0 0.00 0.00 0.00 99 1005.4
20260507095110 7 278 0.0 0.0 0.00 0.00 0.00 99 1006.0
20260507093930 7 272 0.0 0.0 0.00 0.00 0.00 99 1006.0
20260507093344 7 207 0.0 0.0 0.00 0.00 0.00 99 1006.0
20260507092744 7 272 0.0 0.0 0.00 0.00 0.00 99 1006.0
20260507092130 7 273 0.0 0.0 0.00 0.00 0.00 98 1006.0
20260507091510 7 272 0.0 0.0 0.00 0.00 0.00 98 1005.7
20260507090939 7 207 0.0 0.0 0.00 0.00 0.00 98 1006.0
20260507090318 7 259 0.0 0.0 0.00 0.00 0.00 98 1006.0
20260507085715 8 260 0.0 0.0 0.00 0.00 0.00 98 1006.0
20260507085109 8 260 0.0 0.0 0.00 0.00 0.00 98 1005.7
20260507084541 8 271 0.0 0.0 0.00 0.00 0.00 97 1005.7
20260507083925 8 275 0.0 0.0 0.00 0.00 0.00 97 1005.7
20260507083327 8 280 0.0 0.0 0.00 0.00 0.00 97 1005.7
20260507082121 8 262 0.0 0.0 0.00 0.00 0.00 96 1005.7
20260507081530 8 270 0.0 0.0 0.00 0.00 0.00 96 1006.0
20260507080917 8 263 0.0 0.0 0.00 0.00 0.00 95 1005.4
20260507080337 9 280 0.0 0.0 0.00 0.00 0.00 95 1005.7
20260507075716 9 261 0.0 0.0 0.00 0.00 0.00 95 1005.7
20260507075135 9 268 0.0 0.0 0.00 0.00 0.00 95 1006.0
20260507074541 9 270 0.0 0.0 0.00 0.00 0.00 94 1006.0
20260507073952 9 264 0.0 0.0 0.00 0.00 0.00 94 1006.0
20260507073328 10 261 0.0 0.0 0.00 0.00 0.00 94 1006.0
20260507072748 9 257 0.0 0.0 0.00 0.00 0.00 94 1006.0
20260507072116 10 270 0.0 0.0 0.00 0.00 0.00 94 1006.0
20260507071537 10 260 0.0 0.0 0.00 0.00 0.00 93 1006.0
20260507070310 10 261 0.0 0.0 0.00 0.00 0.00 93 1005.7
20260507065753 10 264 0.0 0.0 0.00 0.00 0.00 92 1006.0
20260507064514 10 264 0.0 0.0 0.00 0.00 0.00 92 1006.0
20260507063913 10 262 0.0 0.0 0.00 0.00 0.00 92 1006.0
20260507063347 10 260 0.0 0.0 0.00 0.00 0.00 92 1006.0
20260507062716 10 263 0.0 0.0 0.00 0.00 0.00 92 1005.7
20260507062130 10 260 0.0 0.0 0.00 0.00 0.00 91 1005.7
20260507061517 10 260 0.0 0.0 0.00 0.00 0.00 91 1005.7
20260507060928 10 260 0.0 0.0 0.00 0.00 0.00 91 1006.0
20260507060317 10 264 0.0 0.0 0.00 0.00 0.00 91 1006.0
20260507055734 10 264 0.0 0.0 0.00 0.00 0.00 91 1006.0
20260507055110 10 257 0.0 0.0 0.00 0.00 0.00 90 1006.0
20260507053926 10 260 0.0 0.0 0.00 0.00 0.00 91 1006.0
20260507052712 10 256 0.0 0.0 0.00 0.00 0.00 91 1006.0
20260507052147 10 265 0.0 0.0 0.00 0.00 0.00 90 1006.4
20260507051524 10 258 0.0 0.0 0.00 0.00 0.00 90 1006.0
20260507050911 10 263 0.0 0.0 0.00 0.00 0.00 90 1006.4
20260507050342 10 256 0.0 0.0 0.00 0.00 0.00 90 1006.4
20260507045750 10 266 0.0 0.0 0.00 0.00 0.00 90 1006.4
20260507045142 11 260 0.0 0.0 0.00 0.00 0.00 90 1006.4
20260507044539 11 263 0.0 0.0 0.00 0.00 0.00 90 1006.4
20260507043954 11 260 0.0 0.0 0.00 0.00 0.00 90 1006.4
20260507041541 11 283 0.0 0.0 0.00 0.00 0.00 90 1006.4
20260507040932 11 303 0.0 0.0 0.00 0.00 0.00 90 1006.4
20260507040332 11 282 0.0 0.0 0.00 0.00 0.00 90 1006.0
20260507035713 11 291 0.0 0.0 0.00 0.00 1.40 90 1006.0
20260507035145 11 282 0.0 0.0 0.00 0.00 1.40 90 1006.0
20260507034518 11 275 0.0 0.0 0.00 0.00 1.40 89 1006.0
20260507033911 11 268 0.0 0.0 0.00 0.00 1.40 90 1006.0
20260507033343 11 269 0.0 0.0 0.00 0.00 1.40 91 1005.7
20260507032121 11 299 0.0 0.0 0.00 0.00 1.40 91 1006.0
20260507030950 11 321 0.0 0.0 0.00 0.00 1.40 95 1005.7
20260507030351 12 286 0.0 0.0 0.00 0.00 1.40 95 1006.0
20260507025726 12 270 0.0 0.0 0.00 0.00 1.40 96 1006.0
20260507024540 12 268 0.0 0.0 0.00 0.00 1.40 95 1005.7
20260507023911 12 275 0.0 0.0 0.00 0.00 1.40 95 1006.0
20260507023354 12 262 0.0 0.0 0.00 0.00 1.40 95 1006.0
20260507022710 12 273 0.0 0.0 0.00 0.00 1.40 95 1006.0
20260507022117 12 278 0.0 0.0 0.00 0.00 1.40 95 1005.7
20260507021541 12 282 0.0 0.0 0.00 0.00 1.40 95 1006.0
20260507020939 12 268 0.0 0.0 0.00 0.00 1.40 95 1006.0
20260507020318 13 291 0.0 0.0 0.00 0.00 1.40 95 1006.0
20260507015728 13 274 0.0 0.0 0.00 0.00 1.40 95 1005.4
20260507015145 13 305 0.0 0.0 0.00 0.00 1.40 94 1005.0
20260507014513 13 309 0.0 0.0 0.00 0.00 1.40 97 1005.0
20260507013930 13 298 0.0 1.6 0.00 0.00 1.40 97 1005.0
20260507013354 13 280 0.0 0.0 0.00 0.00 1.40 98 1005.0
20260507012144 13 272 1.6 3.2 0.00 0.00 1.40 98 1005.0
20260507011532 13 271 0.0 0.0 0.00 0.00 1.40 98 1004.7
20260507010953 13 286 0.0 0.0 0.00 0.00 1.40 98 1004.7
20260507010329 13 289 0.0 0.0 0.00 0.00 1.40 98 1004.7
20260507005135 13 285 0.0 0.0 0.00 0.00 1.40 97 1004.4
20260507004543 13 302 0.0 0.0 0.00 0.00 1.40 97 1004.7
20260507003344 13 250 0.0 0.0 0.00 0.00 1.40 96 1004.0
20260507002728 13 272 0.0 0.0 0.00 0.00 1.40 96 1004.4
20260507001548 13 341 0.0 0.0 0.00 0.00 1.40 96 1004.4
20260507000314 13 273 0.0 0.0 0.00 0.00 1.40 95 1003.3
20260506235729 13 273 0.0 0.0 0.00 0.00 1.40 95 1004.0
20260506235133 13 269 0.0 0.0 0.00 0.00 1.40 95 1004.0
20260506234523 13 270 0.0 0.0 0.00 0.00 1.40 94 1004.4
20260506233939 13 264 0.0 0.0 0.00 0.00 1.40 94 1004.4
20260506233351 14 292 0.0 0.0 0.00 0.00 1.40 95 1003.7
20260506232743 14 288 0.0 0.0 0.00 0.00 1.40 95 1004.0
20260506232149 14 268 0.0 0.0 0.00 0.00 1.40 95 1003.3
20260506231525 14 268 0.0 0.0 0.00 0.00 1.40 95 1003.7
20260506230932 14 273 0.0 0.0 0.00 0.00 1.40 94 1004.0
20260506230329 14 283 0.0 0.0 0.00 0.00 1.40 93 1004.4
20260506225711 14 289 0.0 0.0 0.00 0.00 1.40 92 1004.4
20260506225110 15 269 0.0 0.0 0.00 0.00 1.40 92 1004.4
20260506224517 15 292 0.0 0.0 0.00 0.00 1.40 92 1004.4
20260506223932 15 303 0.0 0.0 0.00 0.00 1.40 90 1004.4
20260506223327 15 267 0.0 0.0 0.00 0.00 1.40 89 1004.4
20260506222722 15 316 0.0 0.0 0.00 0.00 1.40 89 1004.0
20260506222145 15 286 0.0 0.0 0.00 0.00 1.40 88 1004.0
20260506221515 15 276 0.0 0.0 0.00 0.00 1.40 85 1004.0
20260506220918 15 304 1.6 3.2 0.00 0.00 1.40 83 1004.0
20260506220343 15 263 3.2 3.2 0.00 0.00 1.40 83 1004.0
20260506215738 15 317 0.0 1.6 0.00 0.00 1.40 87 1003.7
20260506215142 15 268 3.2 3.2 0.00 0.00 1.40 84 1004.0
20260506214549 15 281 3.2 3.2 0.00 0.00 1.40 84 1004.0
20260506213317 15 15 1.6 1.6 0.00 0.00 1.40 90 1003.3
20260506212713 15 309 0.0 0.0 0.00 0.00 1.40 90 1003.3
20260506212127 15 294 0.0 0.0 0.00 0.00 1.40 89 1003.7
20260506210930 15 296 1.6 1.6 0.00 0.00 1.40 87 1003.7
20260506210347 15 341 0.0 1.6 0.00 0.00 1.40 88 1003.7
20260506204531 16 284 1.6 3.2 0.00 0.00 1.40 83 1003.3
20260506203311 15 278 1.6 1.6 0.00 0.00 1.40 82 1003.7
20260506202713 15 270 3.2 4.8 0.00 0.00 1.40 83 1003.7
20260506201533 15 283 1.6 1.6 0.00 0.00 1.40 84 1004.0
20260506200314 15 223 0.0 1.6 0.00 0.00 1.40 85 1003.7
20260506195752 15 275 1.6 1.6 0.00 0.00 1.40 82 1003.7
20260506194536 15 265 3.2 3.2 0.00 0.00 1.40 83 1003.3
20260506193953 15 208 3.2 3.2 0.00 0.00 1.40 84 1003.3
20260506193353 15 292 1.6 1.6 0.00 0.00 1.40 88 1003.3
20260506192743 15 280 1.6 1.6 0.00 0.00 1.40 86 1003.3
20260506192132 15 233 1.6 3.2 0.00 0.00 1.40 86 1003.3
20260506191543 15 260 1.6 3.2 0.00 0.00 1.40 89 1003.3
20260506190913 14 254 3.2 3.2 0.00 0.00 1.40 87 1003.7
20260506190341 14 264 0.0 1.6 0.00 0.00 1.40 89 1003.7
20260506185719 14 215 3.2 4.8 0.00 0.00 1.40 88 1003.3
20260506184536 14 258 0.0 1.6 0.00 0.00 1.40 90 1003.3
20260506183920 13 186 3.2 4.8 0.00 0.00 1.40 90 1003.3
20260506183330 13 250 3.2 3.2 0.00 0.00 1.40 90 1003.3
20260506182741 13 244 3.2 4.8 0.00 0.00 1.40 91 1003.3
20260506181541 13 280 0.0 0.0 0.00 0.00 1.40 92 1003.3
20260506180936 13 219 1.6 3.2 0.00 0.00 1.40 92 1003.3
20260506180354 13 208 1.6 1.6 0.00 0.00 1.40 92 1003.3
20260506175748 13 265 1.6 3.2 0.00 0.00 1.40 93 1003.3